South St. Paul, MN

12:54 AM CST on December 15, 2017 (GMT -0600)
South Saint Paul Municipal-Fleming

Weather History for KSGS - March, 2014

Change the Weather History Date:

Monday, March 24, 2014

  Actual Average (KSTP) Record (KSTP)
Temperature  
Mean Temperature 24 °F -  
Max Temperature 32 °F 43 °F 70 °F (2012)
Min Temperature 16 °F 26 °F 12 °F (2001)
Degree Days  
Heating Degree Days 41    
Moisture  
Dew Point 15 °F    
Average Humidity 67    
Maximum Humidity 88    
Minimum Humidity 38    
Precipitation  
Precipitation 0.03 in - - ()
Sea Level Pressure  
Sea Level Pressure 30.21 in    
Wind  
Wind Speed 3 mph (WNW)    
Max Wind Speed 21 mph    
Max Gust Speed 28 mph    
Visibility 8 miles    
Events Snow    
Averages and records for this station are not official NWS values.
T = Trace of Precipitation, MM = Missing Value Source: NWS Daily Summary

Daily Weather History Graph

Daily Weather History Graph

Search for Another Location

Airport or City:

Trip Planner

Search our weather history database for the weather conditions in past years. The results will help you decide how hot, cold, wet, or windy it might be!

Date:

Astronomy

Mar. 24, 2014 Rise Set
Actual Time 7:07 AM CDT 7:29 PM CDT
Civil Twilight 6:38 AM CDT 7:59 PM CDT
Nautical Twilight 6:03 AM CDT 8:33 PM CDT
Astronomical Twilight 5:28 AM CDT 9:09 PM CDT
Moon 2:52 AM CDT (3/24) 12:41 PM CDT (3/24)
Length of Visible Light 13h 20m
Length of Day
12h 22m
Last Quarter, 43% of the Moon is Illuminated
Mar 24
Last Quarter
Mar 30
New
Apr 7
First Quarter
Apr 15
Full
Apr 22
Last Quarter

Hourly Weather History & Observations

Time (CDT) Temp. Windchill Dew Point Humidity Pressure Visibility Wind Dir Wind Speed Gust Speed Precip Events Conditions
12:12 AM 22.5 °F - 13.8 °F 69% 30.35 in 10.0 mi Calm Calm - N/A   Clear
12:32 AM 22.5 °F - 13.1 °F 67% 30.35 in 10.0 mi Calm Calm - N/A   Clear
12:52 AM 22.8 °F 18.2 °F 13.1 °F 66% 30.35 in 10.0 mi North 3.5 mph - N/A   Clear
1:12 AM 22.1 °F - 13.6 °F 70% 30.35 in 10.0 mi Calm Calm - N/A   Clear
1:32 AM 21.6 °F - 13.1 °F 70% 30.36 in 10.0 mi Calm Calm - N/A   Clear
1:52 AM 21.0 °F - 12.4 °F 69% 30.35 in 10.0 mi Calm Calm - N/A   Clear
2:12 AM 19.9 °F - 12.2 °F 72% 30.35 in 10.0 mi Calm Calm - N/A   Clear
2:32 AM 20.3 °F - 12.4 °F 71% 30.34 in 10.0 mi Calm Calm - N/A   Scattered Clouds
2:52 AM 18.7 °F - 12.2 °F 76% 30.33 in 10.0 mi Calm Calm - N/A   Scattered Clouds
3:12 AM 19.2 °F - 12.2 °F 74% 30.32 in 10.0 mi Calm Calm - N/A   Scattered Clouds
3:32 AM 18.7 °F - 12.0 °F 75% 30.31 in 10.0 mi Calm Calm - N/A   Scattered Clouds
3:52 AM 18.1 °F - 12.2 °F 78% 30.32 in 10.0 mi Calm Calm - N/A   Scattered Clouds
4:12 AM 18.3 °F - 12.0 °F 76% 30.31 in 10.0 mi Calm Calm - N/A   Clear
4:32 AM 18.1 °F - 11.8 °F 76% 30.30 in 10.0 mi Calm Calm - N/A   Clear
4:52 AM 16.9 °F - 11.1 °F 78% 30.30 in 10.0 mi Calm Calm - N/A   Clear
5:12 AM 16.3 °F - 11.1 °F 80% 30.29 in 10.0 mi Calm Calm - N/A   Clear
5:32 AM 16.3 °F - 11.1 °F 80% 30.29 in 10.0 mi Calm Calm - N/A   Scattered Clouds
5:51 AM 16.3 °F - 11.1 °F 80% 30.29 in 10.0 mi Calm Calm - N/A   Scattered Clouds
6:12 AM 16.5 °F - 11.7 °F 81% 30.30 in 10.0 mi Calm Calm - N/A   Mostly Cloudy
6:32 AM 16.5 °F - 11.5 °F 81% 30.30 in 10.0 mi Calm Calm - N/A   Overcast
6:52 AM 17.6 °F - 12.7 °F 81% 30.30 in 10.0 mi Calm Calm - N/A   Overcast
7:12 AM 18.3 °F - 13.5 °F 81% 30.29 in 10.0 mi Calm Calm - N/A   Overcast
7:32 AM 19.0 °F - 13.8 °F 80% 30.29 in 10.0 mi Calm Calm - N/A   Overcast
7:52 AM 19.8 °F - 14.0 °F 78% 30.29 in 10.0 mi Calm Calm - N/A   Overcast
8:12 AM 20.3 °F - 14.7 °F 79% 30.29 in 10.0 mi Calm Calm - N/A   Overcast
8:32 AM 20.8 °F - 14.9 °F 78% 30.29 in 10.0 mi Calm Calm - N/A   Overcast
8:52 AM 21.9 °F - 15.6 °F 77% 30.28 in 10.0 mi Calm Calm - N/A   Overcast
9:12 AM 23.0 °F - 17.2 °F 79% 30.27 in 3.0 mi Calm Calm - N/A Snow Light Snow
9:32 AM 23.5 °F - 18.3 °F 80% 30.27 in 1.2 mi Calm Calm - N/A Snow Light Snow
9:52 AM 23.2 °F - 18.5 °F 82% 30.27 in 0.8 mi Calm Calm - N/A Snow Light Snow
10:12 AM 24.1 °F - 19.6 °F 83% 30.26 in 2.0 mi Calm Calm - N/A Snow Light Snow
10:32 AM 24.4 °F 20.1 °F 19.4 °F 81% 30.25 in 4.0 mi SE 3.5 mph - N/A Snow Light Snow
10:52 AM 25.7 °F 21.5 °F 20.8 °F 82% 30.24 in 5.0 mi SSE 3.5 mph - N/A   Haze
11:12 AM 26.4 °F 20.9 °F 21.4 °F 81% 30.24 in 4.0 mi South 4.6 mph - N/A Snow Light Snow
11:32 AM 27.0 °F - 21.7 °F 81% 30.23 in 2.5 mi Calm Calm - N/A Snow Light Snow
11:51 AM 28.4 °F 22.2 °F 23.0 °F 80% 30.22 in 1.5 mi SSW 5.8 mph - N/A Snow Light Snow
12:12 PM 28.9 °F 25.2 °F 24.1 °F 82% 30.20 in 1.2 mi South 3.5 mph - N/A Snow Light Snow
12:32 PM 30.2 °F 26.7 °F 25.9 °F 84% 30.20 in 1.2 mi SSW 3.5 mph - N/A Snow Light Snow
12:52 PM 30.2 °F - 25.9 °F 84% 30.19 in 0.8 mi Calm Calm - N/A Snow Light Snow
1:12 PM 29.7 °F - 26.1 °F 86% 30.18 in 0.5 mi Calm Calm - 0.01 in Snow Snow
1:32 PM 29.3 °F 25.6 °F 26.1 °F 88% 30.17 in 1.0 mi North 3.5 mph - 0.02 in Snow Light Snow
1:52 PM 30.2 °F 25.4 °F 26.4 °F 86% 30.17 in 2.0 mi North 4.6 mph - 0.02 in Snow Light Snow
2:12 PM 31.6 °F 21.2 °F 24.1 °F 74% 30.16 in 10.0 mi NW 15.0 mph - 0.01 in   Mostly Cloudy
2:32 PM 32.0 °F 22.1 °F 21.9 °F 66% 30.15 in 10.0 mi NNW 13.8 mph 20.7 mph 0.01 in   Mostly Cloudy
2:52 PM 31.5 °F 21.4 °F 20.7 °F 64% 30.15 in 10.0 mi NNW 13.8 mph 19.6 mph 0.01 in   Mostly Cloudy
3:12 PM 32.0 °F 22.1 °F 19.0 °F 59% 30.14 in 10.0 mi NW 13.8 mph 18.4 mph N/A   Scattered Clouds
3:32 PM 32.4 °F 21.3 °F 19.0 °F 58% 30.13 in 10.0 mi NW 17.3 mph 21.9 mph N/A   Scattered Clouds
3:52 PM 32.0 °F 23.6 °F 15.8 °F 51% 30.12 in 10.0 mi WNW 10.4 mph 20.7 mph N/A   Scattered Clouds
4:12 PM 32.0 °F 22.5 °F 15.6 °F 51% 30.12 in 10.0 mi WNW 12.7 mph 19.6 mph N/A   Scattered Clouds
4:32 PM 32.0 °F 26.4 °F 16.2 °F 52% 30.11 in 10.0 mi WNW 5.8 mph - N/A   Mostly Cloudy
4:52 PM 32.0 °F 23.0 °F 18.5 °F 58% 30.11 in 10.0 mi WNW 11.5 mph 19.6 mph N/A Snow Light Snow
5:12 PM 32.0 °F 20.8 °F 17.2 °F 55% 30.10 in 10.0 mi WNW 17.3 mph 21.9 mph N/A   Mostly Cloudy
5:32 PM 30.6 °F 21.8 °F 20.8 °F 67% 30.10 in 7.0 mi WNW 10.4 mph 17.3 mph N/A   Mostly Cloudy
5:52 PM 30.9 °F 21.2 °F 18.3 °F 60% 30.10 in 10.0 mi NW 12.7 mph 21.9 mph N/A   Mostly Cloudy
6:12 PM 31.3 °F 18.9 °F 8.6 °F 39% 30.10 in 10.0 mi WNW 20.7 mph 27.6 mph N/A   Scattered Clouds
6:32 PM 30.6 °F 18.6 °F 8.6 °F 40% 30.11 in 10.0 mi WNW 18.4 mph 24.2 mph N/A   Clear
6:52 PM 30.0 °F 19.5 °F 8.4 °F 40% 30.11 in 10.0 mi NW 13.8 mph 23.0 mph N/A   Scattered Clouds
7:12 PM 29.3 °F 19.6 °F 6.3 °F 38% 30.12 in 10.0 mi NW 11.5 mph 24.2 mph N/A   Scattered Clouds
7:32 PM 28.4 °F 18.0 °F 5.9 °F 39% 30.11 in 10.0 mi WNW 12.7 mph 26.5 mph N/A   Clear
7:52 PM 28.2 °F 18.3 °F 6.6 °F 40% 30.11 in 10.0 mi NW 11.5 mph 20.7 mph N/A   Clear
8:12 PM 28.2 °F 18.9 °F 7.2 °F 41% 30.11 in 10.0 mi WNW 10.4 mph - N/A   Clear
8:32 PM 27.9 °F 24.0 °F 7.7 °F 43% 30.11 in 10.0 mi West 3.5 mph - N/A   Clear
8:51 PM 27.5 °F 20.2 °F 7.7 °F 43% 30.11 in 10.0 mi West 6.9 mph - N/A   Clear
9:12 PM 26.8 °F 21.4 °F 8.2 °F 46% 30.11 in 10.0 mi West 4.6 mph - N/A   Clear
9:32 PM 26.4 °F 19.8 °F 9.0 °F 48% 30.11 in 10.0 mi West 5.8 mph - N/A   Clear
9:52 PM 24.8 °F 19.1 °F 9.3 °F 52% 30.10 in 10.0 mi West 4.6 mph - N/A   Clear
10:12 PM 24.8 °F 19.1 °F 9.7 °F 53% 30.10 in 10.0 mi West 4.6 mph - N/A   Clear
10:32 PM 24.8 °F 19.1 °F 10.4 °F 54% 30.10 in 10.0 mi West 4.6 mph - N/A   Clear
10:52 PM 25.7 °F 18.0 °F 11.3 °F 55% 30.10 in 10.0 mi West 6.9 mph - N/A   Scattered Clouds
11:12 PM 26.4 °F 18.0 °F 12.0 °F 55% 30.10 in 10.0 mi WNW 8.1 mph - N/A   Scattered Clouds
11:32 PM 26.6 °F 16.8 °F 12.9 °F 56% 30.10 in 10.0 mi WNW 10.4 mph - N/A   Mostly Cloudy
11:52 PM 27.0 °F 13.9 °F 14.0 °F 58% 30.10 in 10.0 mi NW 18.4 mph 24.2 mph N/A   Scattered Clouds